Location: Peebles
(55.6412°N, 3.1714°W)
Time: 11:08:10
(UTC+00:00)

RS-15 - Pass Details

Date: 07 December 2023
Orbit: 1899 x 2145 km, 64.8° (Epoch: 12 November)

Event Time Altitude Azimuth Distance (km) Brightness Sun altitude
Exits shadow 05:42:08 27° 299° (WNW) 3,235 8.6 -21.5°
Maximum altitude 05:47:54 46° 246° (WSW) 2,481 8.2 -20.7°
Drops below altitude 10° 05:58:03 10° 178° (S) 4,296 10.0 -19.3°
Sets 06:01:26 0° 172° (S) 5,279 10.6 -18.8°
